Mobile, AL

5:40 AM CST on February 27, 2017 (GMT -0600)
Mobile Downtown

Weather History for KBFM - August, 2013

Change the Weather History Date:

Friday, August 9, 2013

  Actual Average Record
Temperature  
Mean Temperature 85 °F -  
Max Temperature 90 °F 87 °F 97 °F (2007)
Min Temperature 80 °F 72 °F 68 °F (2008)
Cooling Degree Days 20    
Growing Degree Days 35 (Base 50)    
Moisture  
Dew Point 77 °F    
Average Humidity 78    
Maximum Humidity 94    
Minimum Humidity 59    
Precipitation  
Precipitation 0.00 in - - ()
Sea Level Pressure  
Sea Level Pressure 30.01 in    
Wind  
Wind Speed 10 mph (ESE)    
Max Wind Speed 16 mph    
Max Gust Speed 24 mph    
Visibility 10 miles    
Events Thunderstorm    
Averages and records for this station are not official NWS values.
T = Trace of Precipitation, MM = Missing Value Source: NWS Daily Summary

Daily Weather History Graph

Daily Weather History Graph

Search for Another Location

Airport or City:

Trip Planner

Search our weather history database for the weather conditions in past years. The results will help you decide how hot, cold, wet, or windy it might be!

Date:

Astronomy

Aug. 09, 2013 Rise Set
Actual Time 6:15 AM CDT 7:39 PM CDT
Civil Twilight 5:49 AM CDT 8:05 PM CDT
Nautical Twilight 5:18 AM CDT 8:35 PM CDT
Astronomical Twilight 4:47 AM CDT 9:07 PM CDT
Moon 8:45 AM CDT (8/9) 9:07 PM CDT (8/9)
Length of Visible Light 14h 15m
Length of Day
13h 24m
Waxing Crescent, 8% of the Moon is Illuminated
Aug 9
Waxing Crescent
Aug 14
First Quarter
Aug 20
Full
Aug 28
Last Quarter
Sep 5
New

Hourly Weather History & Observations

Time (CDT) Temp. Heat Index Dew Point Humidity Pressure Visibility Wind Dir Wind Speed Gust Speed Precip Events Conditions
12:53 AM 82.0 °F 91.0 °F 78.1 °F 88% 29.97 in 10.0 mi ESE 12.7 mph - N/A   Clear
1:53 AM 82.0 °F 91.0 °F 78.1 °F 88% 29.97 in 10.0 mi East 8.1 mph - N/A   Clear
2:53 AM 81.0 °F 88.6 °F 78.1 °F 91% 29.97 in 10.0 mi ENE 5.8 mph - N/A   Partly Cloudy
3:13 AM 80.6 °F 88.1 °F 78.8 °F 94% 29.97 in 10.0 mi ENE 8.1 mph - N/A   Mostly Cloudy
3:26 AM 80.6 °F 88.1 °F 78.8 °F 94% 29.97 in 10.0 mi NE 5.8 mph - N/A   Mostly Cloudy
3:38 AM 80.6 °F 88.1 °F 78.8 °F 94% 29.96 in 10.0 mi ENE 6.9 mph - N/A   Mostly Cloudy
3:53 AM 81.0 °F 88.6 °F 78.1 °F 91% 29.96 in 10.0 mi ENE 6.9 mph - N/A   Scattered Clouds
4:53 AM 81.0 °F 88.6 °F 78.1 °F 91% 29.97 in 10.0 mi East 5.8 mph - N/A   Clear
5:53 AM 80.1 °F 86.4 °F 78.1 °F 94% 29.99 in 10.0 mi ENE 9.2 mph - N/A   Scattered Clouds
6:53 AM 81.0 °F 88.6 °F 78.1 °F 91% 30.00 in 10.0 mi ENE 11.5 mph - N/A   Clear
7:04 AM 80.6 °F 88.1 °F 78.8 °F 94% 30.00 in 10.0 mi East 11.5 mph - N/A   Scattered Clouds
7:53 AM 82.9 °F 91.8 °F 77.0 °F 82% 30.01 in 10.0 mi East 9.2 mph - N/A   Scattered Clouds
8:53 AM 84.0 °F 93.7 °F 77.0 °F 79% 30.02 in 10.0 mi East 11.5 mph - N/A   Scattered Clouds
9:53 AM 86.0 °F 96.9 °F 77.0 °F 74% 30.03 in 10.0 mi ESE 8.1 mph - N/A   Scattered Clouds
10:53 AM 89.1 °F 98.0 °F 73.9 °F 61% 30.04 in 10.0 mi SE 13.8 mph - N/A   Mostly Cloudy
11:26 AM 86.0 °F 96.9 °F 77.0 °F 74% 30.04 in 10.0 mi SSE 16.1 mph 24.2 mph N/A Thunderstorm Thunderstorm
11:53 AM 87.1 °F 98.8 °F 77.0 °F 72% 30.04 in 10.0 mi SE 13.8 mph - N/A Thunderstorm Thunderstorm
12:34 PM 87.8 °F 97.6 °F 75.2 °F 66% 30.03 in 10.0 mi SE 10.4 mph - N/A   Mostly Cloudy
12:53 PM 88.0 °F 97.5 °F 75.0 °F 65% 30.03 in 10.0 mi SE 10.4 mph - N/A   Scattered Clouds
1:53 PM 89.1 °F 98.0 °F 73.9 °F 61% 30.01 in 10.0 mi SSE 11.5 mph - N/A   Scattered Clouds
2:53 PM 90.0 °F 99.0 °F 73.9 °F 59% 30.00 in 10.0 mi SSE 11.5 mph 19.6 mph N/A   Scattered Clouds
3:53 PM 89.1 °F 99.1 °F 75.0 °F 63% 29.99 in 10.0 mi SSE 10.4 mph 18.4 mph N/A   Clear
4:53 PM 88.0 °F 98.5 °F 75.9 °F 67% 29.99 in 10.0 mi South 11.5 mph - N/A   Clear
5:53 PM 86.0 °F 93.8 °F 73.9 °F 67% 29.99 in 10.0 mi SSE 6.9 mph - N/A   Clear
6:53 PM 86.0 °F 93.0 °F 73.0 °F 65% 30.01 in 10.0 mi SSE 9.2 mph - N/A   Clear
7:53 PM 84.9 °F 93.3 °F 75.0 °F 72% 30.03 in 10.0 mi SE 8.1 mph - N/A   Clear
8:53 PM 84.0 °F 91.9 °F 75.0 °F 74% 30.05 in 10.0 mi SE 8.1 mph - N/A   Clear
9:53 PM 84.0 °F 92.6 °F 75.9 °F 76% 30.07 in 10.0 mi ESE 8.1 mph - N/A   Clear
10:53 PM 82.9 °F 91.8 °F 77.0 °F 82% 30.07 in 10.0 mi ESE 6.9 mph - N/A   Clear
11:53 PM 82.9 °F 90.8 °F 75.9 °F 79% 30.06 in 10.0 mi ESE 9.2 mph - N/A   Clear